Weather History for KTCM - July, 2013

Change the Weather History Date:

Wednesday, July 24, 2013

  Actual Average Record
Temperature  
Mean Temperature 69 °F -  
Max Temperature 86 °F 76 °F 96 °F (2004)
Min Temperature 52 °F 52 °F 33 °F (2006)
Cooling Degree Days 4    
Growing Degree Days 19 (Base 50)    
Moisture  
Dew Point 55 °F    
Average Humidity 61    
Maximum Humidity 96    
Minimum Humidity 33    
Precipitation  
Precipitation 0.00 in - - ()
Sea Level Pressure  
Sea Level Pressure 30.05 in    
Wind  
Wind Speed 3 mph (WNW)    
Max Wind Speed 10 mph    
Max Gust Speed -    
Visibility 10 miles    
Events      
Averages and records for this station are not official NWS values.
T = Trace of Precipitation, MM = Missing Value Source: NWS Daily Summary

Daily Weather History Graph

Daily Weather History Graph

Search for Another Location

Airport or City:

Trip Planner

Search our weather history database for the weather conditions in past years. The results will help you decide how hot, cold, wet, or windy it might be!

Date:

Astronomy

Jul. 24, 2013 Rise Set
Actual Time 5:39 AM PDT 8:52 PM PDT
Civil Twilight 5:02 AM PDT 9:29 PM PDT
Nautical Twilight 4:14 AM PDT 10:16 PM PDT
Astronomical Twilight 3:14 AM PDT 11:16 PM PDT
Moon 9:45 PM PDT (7/24) 8:19 AM PDT (7/24)
Length of Visible Light 16h 26m
Length of Day
15h 12m
Waning Gibbous, 94% of the Moon is Illuminated
Jul 24
Waning Gibbous
Jul 29
Last Quarter
Aug 6
New
Aug 14
First Quarter
Aug 20
Full

Hourly Weather History & Observations

Time (PDT) Temp. Heat Index Dew Point Humidity Pressure Visibility Wind Dir Wind Speed Gust Speed Precip Events Conditions
12:58 AM 66.6 °F - 51.6 °F 59% 30.03 in 10.0 mi Calm Calm - N/A   Clear
1:58 AM 62.6 °F - 54.0 °F 73% 30.04 in 10.0 mi SSW 3.5 mph - N/A   Clear
2:58 AM 57.6 °F - 52.3 °F 83% 30.05 in 10.0 mi SSW 2.3 mph - N/A   Clear
3:58 AM 59.0 °F - 54.9 °F 86% 30.06 in 10.0 mi SW 2.3 mph - N/A   Clear
4:58 AM 54.5 °F - 52.0 °F 91% 30.06 in 10.0 mi South 2.3 mph - N/A   Clear
5:58 AM 52.3 °F - 51.3 °F 96% 30.07 in 10.0 mi SSW 2.3 mph - N/A   Clear
6:58 AM 57.4 °F - 54.1 °F 89% 30.08 in 10.0 mi Variable 2.3 mph - N/A   Clear
7:58 AM 59.5 °F - 54.0 °F 82% 30.08 in 10.0 mi West 5.8 mph - N/A   Clear
8:58 AM 62.8 °F - 54.7 °F 75% 30.09 in 10.0 mi Variable 4.6 mph - N/A   Clear
9:58 AM 65.5 °F - 55.2 °F 69% 30.08 in 10.0 mi WSW 4.6 mph - N/A   Clear
10:58 AM 69.6 °F - 55.9 °F 62% 30.07 in 10.0 mi Variable 1.2 mph - N/A   Clear
11:58 AM 74.1 °F - 56.8 °F 55% 30.07 in 10.0 mi Variable 3.5 mph - N/A   Clear
12:58 PM 76.5 °F - 55.2 °F 48% 30.07 in 10.0 mi WNW 5.8 mph - N/A   Clear
1:58 PM 80.2 °F 80.4 °F 55.6 °F 43% 30.06 in 10.0 mi NNW 9.2 mph - N/A   Clear
2:58 PM 82.9 °F 82.1 °F 55.4 °F 39% 30.04 in 10.0 mi Variable 6.9 mph - N/A   Clear
3:58 PM 84.9 °F 83.6 °F 55.0 °F 36% 30.03 in 10.0 mi North 10.4 mph - N/A   Clear
4:58 PM 85.5 °F 84.1 °F 55.8 °F 36% 30.02 in 10.0 mi North 5.8 mph - N/A   Clear
5:58 PM 86.9 °F 85.1 °F 54.1 °F 33% 30.01 in 10.0 mi Variable 3.5 mph - N/A   Clear
6:58 PM 84.7 °F 83.7 °F 56.8 °F 38% 30.01 in 10.0 mi NW 8.1 mph - N/A   Clear
7:58 PM 82.2 °F 81.8 °F 56.1 °F 41% 30.02 in 10.0 mi North 4.6 mph - N/A   Clear
8:58 PM 76.1 °F - 58.8 °F 55% 30.03 in 10.0 mi WNW 4.6 mph - N/A   Clear
9:58 PM 73.2 °F - 52.2 °F 48% 30.04 in 10.0 mi NW 3.5 mph - N/A   Clear
10:58 PM 69.1 °F - 51.3 °F 53% 30.05 in 10.0 mi North 3.5 mph - N/A   Clear
11:58 PM 67.3 °F - 55.2 °F 65% 30.05 in 10.0 mi Variable 1.2 mph - N/A   Clear